[[{"header":{"parameterUnit":"m.s-1","parameterCategory":1,"la1":30.2991,"la2":30.254,"lo1":-89.0895,"lo2":-89.0444,"dy":0.0017,"dx":0.0017,"nx":28,"ny":28,"refTime":"2025-11-10T03:00:00:Z","depth":0,"parameterNumber":2,"parameterNumberName":"U-component_of_WINDS"},"data":[0,0,0,0,0,0,0,0,0,0,0,0,0,0,0,0,0,0,0,0,0,0,0,0,0,0,0,0,0,0,0,0,0,0,0,0,0,0,0,0,0,0,0,0,0,0,0,0,0,0,0,0,0,0,0,0,0,0,-2.7287,-2.7288,0,-2.735,-2.7351,-2.7352,-2.7283,-2.728,-2.7277,-2.7275,-2.7338,-2.7342,-2.7346,0,0,0,0,0,0,0,0,0,0,0,0,0,-2.7104,-2.7108,-2.7287,-2.7288,-2.7289,-2.735,-2.7351,-2.7352,-2.7283,-2.728,-2.7277,-2.7274,-2.7337,-2.7342,-2.7347,0,0,0,0,0,0,0,0,0,0,0,0,0,-2.7177,-2.7109,-2.7287,-2.7262,-2.726,-2.735,-2.7351,-2.7352,-2.7284,-2.728,-2.7276,-2.7272,-2.7335,-2.7341,-2.7347,-2.7464,0,0,-2.7366,-2.7369,0,0,0,0,0,0,0,0,-2.7173,-2.7184,-2.7265,-2.7264,-2.7262,-2.7305,-2.731,-2.739,-2.7285,-2.7275,-2.7275,-2.727,-2.733,-2.7336,-2.7357,-2.7467,-2.747,-2.7367,-2.7371,-2.7373,-2.7375,0,0,0,0,0,0,0,-2.7168,-2.7181,-2.7312,-2.7266,-2.7264,-2.7246,-2.7252,-2.7324,-2.7324,-2.7275,-2.7271,-2.7279,-2.7329,-2.7351,-2.7358,-2.7471,-2.7367,-2.7372,-2.7376,-2.7378,-2.7677,-2.7681,0,0,0,0,0,0,-2.7166,-2.7177,-2.731,-2.7314,-2.7207,-2.7253,-2.726,-2.7295,-2.7323,-2.7323,-2.7282,-2.7276,-2.7342,-2.7351,-2.736,-2.7497,-2.7373,-2.7379,-2.7383,-2.7673,-2.7678,-2.7683,0,0,0,0,0,0,-2.7163,-2.7179,-2.7307,-2.7244,-2.7259,-2.726,-2.73,-2.7298,-2.7321,-2.7328,-2.7327,-2.7306,-2.734,-2.7351,-2.7438,-2.7498,-2.7382,-2.7387,-2.7668,-2.7675,-2.768,-2.7772,0,0,0,0,0,0,-2.7158,-2.7178,-2.7223,-2.7246,-2.7263,-2.7386,-2.7304,-2.7302,-2.7332,-2.7323,-2.735,-2.735,-2.7337,-2.7429,-2.7444,-2.7504,-2.7392,-2.7663,-2.7671,-2.7678,-2.7764,-2.7781,-2.7796,0,0,0,0,0,-2.7151,-2.7247,-2.7226,-2.7242,-2.732,-2.739,-2.7399,-2.7383,-2.7337,-2.7382,-2.7386,-2.7349,-2.7489,-2.7439,-2.7455,-2.7518,-2.7659,-2.7669,-2.7678,-2.7757,-2.7778,-2.7795,0,0,0,0,0,0,-2.7232,-2.725,-2.7227,-2.7332,-2.736,-2.7378,-2.7434,-2.7406,-2.7447,-2.7438,-2.7415,-2.7422,-2.7514,-2.7525,-2.7468,-2.7631,-2.7566,-2.7579,-2.7621,-2.7641,-2.7656,-2.7651,-2.7397,0,0,0,0,0,-2.7262,-2.7318,-2.733,-2.7422,-2.7437,-2.7434,-2.7464,-2.7448,-2.7476,-2.7487,-2.7498,-2.7526,-2.7575,-2.7608,-2.7655,-2.7765,-2.7769,-2.7816,-2.7832,-2.7845,-2.7856,-2.7913,-2.7933,-2.7714,-2.7714,-2.7714,0,0,-2.7325,-2.7341,-2.7378,-2.7439,-2.7459,-2.7516,-2.7444,-2.7508,-2.755,-2.7497,-2.7579,-2.7588,-2.7617,-2.7716,-2.776,-2.7728,-2.7917,-2.7857,-2.7867,-2.7872,-2.7925,-2.7945,-2.7964,-2.772,-2.7719,-2.7718,0,0,-2.7468,-2.7487,-2.7565,-2.7585,-2.7616,-2.7612,-2.7631,-2.7653,-2.7656,-2.7739,-2.7699,-2.7748,-2.7835,-2.7857,-2.7879,-2.8028,-2.7995,-2.8044,-2.8126,-2.8181,-2.8199,-2.8214,-2.8265,-2.8284,-2.8055,-2.8055,-2.8056,0,-2.7542,-2.7627,-2.7608,-2.7675,-2.7701,-2.7656,-2.7733,-2.7754,-2.7798,-2.7817,-2.778,-2.7887,-2.7903,-2.8005,-2.8041,-2.8061,-2.808,-2.804,-2.8198,-2.8213,-2.8227,-2.8275,-2.8295,-2.8061,-2.806,-2.806,-2.8059,0,-2.7715,-2.7775,-2.7834,-2.7877,-2.7911,-2.7983,-2.7973,-2.8009,-2.7991,-2.799,-2.8073,-2.8091,-2.8139,-2.8163,-2.8146,-2.8261,-2.824,-2.8201,-2.8135,-2.8253,-2.8298,-2.8317,-2.8069,-2.8067,-2.8065,-2.8064,0,0,-2.7912,-2.7942,-2.7964,-2.7982,-2.8011,-2.8056,-2.8125,-2.8172,-2.8202,-2.8234,-2.8289,-2.8363,-2.8326,-2.8351,-2.8336,-2.8385,-2.8499,-2.8339,-2.834,-2.8367,-2.8625,-2.8653,-2.8675,-2.8477,-2.8481,-2.8484,-2.8622,0,-2.8054,-2.8174,-2.8157,-2.8272,-2.8325,-2.8281,-2.8341,-2.8364,-2.8365,-2.841,-2.8411,-2.8463,-2.8412,-2.8426,-2.8473,-2.8475,-2.855,-2.8465,-2.8527,-2.853,-2.852,-2.8699,-2.8729,-2.8859,-2.8639,-2.8642,-2.8645,0,-2.8237,-2.8274,-2.8393,-2.8412,-2.8433,-2.8487,-2.8527,-2.8572,-2.8596,-2.8593,-2.8621,-2.8596,-2.8663,-2.8597,-2.8687,-2.863,-2.8654,-2.8659,-2.8664,-2.8668,-2.8594,-2.8706,-2.89,-2.8919,-2.8672,-2.867,-2.8668,0,-2.8365,-2.8446,-2.8527,-2.8543,-2.8568,-2.8606,-2.8618,-2.8639,-2.8667,-2.8702,-2.872,-2.8762,-2.8785,-2.8818,-2.8805,-2.8758,-2.8897,-2.883,-2.8895,-2.8896,-2.8926,-2.8924,-2.9125,-2.8944,-2.8944,-2.8944,-2.8943,0,-2.8525,-2.86,-2.8584,-2.8634,-2.8715,-2.8695,-2.8776,-2.8782,-2.8801,-2.885,-2.8815,-2.8861,-2.8841,-2.8886,-2.8876,-2.8951,-2.8963,-2.8961,-2.8957,-2.8963,-2.8963,-2.8978,-2.8968,-2.8949,-2.8948,-2.8947,-2.8946,0,-2.8683,-2.8676,-2.8761,-2.8777,-2.8782,-2.8841,-2.8853,-2.8899,-2.8897,-2.8959,-2.8973,-2.8969,-2.902,-2.901,-2.9066,-2.9059,-2.9153,-2.9139,-2.9144,-2.914,-2.9205,-2.9199,-2.9421,-2.9448,-2.9252,-2.9254,-2.9256,0,-2.8785,-2.8841,-2.8862,-2.8892,-2.8906,-2.8956,-2.8984,-2.8966,-2.8997,-2.9028,-2.9069,-2.9117,-2.9154,-2.9237,-2.9238,-2.928,-2.9266,-2.9341,-2.9272,-2.9276,-2.9265,-2.9261,-2.9265,-2.9354,-2.9357,-2.9358,-2.936,0,-2.8966,-2.8959,-2.9001,-2.9042,-2.9077,-2.9108,-2.9136,-2.9163,-2.9146,-2.9183,-2.9234,-2.9262,-2.9319,-2.9366,-2.9404,-2.9415,-2.9384,-2.9382,-2.9398,-2.9405,-2.9405,-2.9404,-2.918,-2.9376,-2.9375,-2.9374,-2.9373,-2.9372,-2.9097,-2.9144,-2.9165,-2.9213,-2.9232,-2.9258,-2.9301,-2.9304,-2.9346,-2.9391,-2.9377,-2.9435,-2.9456,-2.9504,-2.9519,-2.9563,-2.9535,-2.956,-2.9566,-2.9572,-2.9579,-2.9399,-2.957,-2.957,-2.9569,-2.9569,-2.9569,0,-2.9274,-2.9285,-2.9329,-2.9369,-2.9406,-2.9374,-2.9403,-2.9436,-2.9487,-2.9509,-2.9546,-2.9603,-2.9648,-2.9653,-2.9695,-2.9729,-2.9715,-2.974,-2.9736,-2.9739,-2.9603,-2.9583,-2.975,-2.975,-2.975,-2.975,-2.975,-2.975,-2.9371,-2.9447,-2.9443,-2.9527,-2.9537,-2.9594,-2.9612,-2.9636,-2.9653,-2.9719,-2.9756,-2.9758,-2.9773,-2.9815,-2.9854,-2.9854,-2.987,-2.99,-2.9894,-2.9767,-2.9749,-2.9732,-2.9713,-2.9904,-2.9904,-3.0026,-3.0028,-3.0028]},{"header":{"parameterUnit":"m.s-1","parameterCategory":1,"la1":30.2991,"la2":30.254,"lo1":-89.0895,"lo2":-89.0444,"dy":0.0017,"dx":0.0017,"nx":28,"ny":28,"refTime":"2025-11-10T03:00:00:Z","depth":0,"parameterNumber":3,"parameterNumberName":"V-component_of_WINDS"},"data":[0,0,0,0,0,0,0,0,0,0,0,0,0,0,0,0,0,0,0,0,0,0,0,0,0,0,0,0,0,0,0,0,0,0,0,0,0,0,0,0,0,0,0,0,0,0,0,0,0,0,0,0,0,0,0,0,0,0,-6.2474,-6.2475,0,-6.2577,-6.2578,-6.2579,-6.2469,-6.2465,-6.2461,-6.2457,-6.2557,-6.2563,-6.257,0,0,0,0,0,0,0,0,0,0,0,0,0,-6.2174,-6.218,-6.2474,-6.2475,-6.2476,-6.2577,-6.2578,-6.258,-6.247,-6.2465,-6.246,-6.2455,-6.2555,-6.2563,-6.2571,0,0,0,0,0,0,0,0,0,0,0,0,0,-6.2293,-6.2182,-6.2474,-6.2434,-6.2431,-6.2577,-6.2578,-6.258,-6.2471,-6.2465,-6.2458,-6.2453,-6.2552,-6.2562,-6.2572,-6.276,0,0,-6.2602,-6.2606,0,0,0,0,0,0,0,0,-6.2287,-6.2304,-6.2438,-6.2437,-6.2434,-6.2504,-6.2509,-6.264,-6.2473,-6.2456,-6.2457,-6.2449,-6.2544,-6.2554,-6.2587,-6.2764,-6.2768,-6.2603,-6.2609,-6.2613,-6.2616,0,0,0,0,0,0,0,-6.2279,-6.2299,-6.2514,-6.244,-6.2438,-6.2408,-6.2418,-6.2534,-6.2534,-6.2457,-6.2449,-6.2463,-6.2542,-6.2578,-6.2589,-6.277,-6.2603,-6.2611,-6.2617,-6.2621,-6.3102,-6.3109,0,0,0,0,0,0,-6.2276,-6.2293,-6.2511,-6.2518,-6.2344,-6.2419,-6.243,-6.2488,-6.2533,-6.2533,-6.2468,-6.2458,-6.2564,-6.2578,-6.2592,-6.2813,-6.2613,-6.2622,-6.2628,-6.3095,-6.3104,-6.3111,0,0,0,0,0,0,-6.227,-6.2296,-6.2507,-6.2403,-6.2428,-6.2431,-6.2497,-6.2493,-6.253,-6.2541,-6.254,-6.2506,-6.256,-6.2578,-6.2718,-6.2815,-6.2627,-6.2636,-6.3087,-6.3098,-6.3107,-6.3257,0,0,0,0,0,0,-6.2262,-6.2295,-6.2368,-6.2406,-6.2434,-6.2634,-6.2503,-6.25,-6.2548,-6.2535,-6.2576,-6.2577,-6.2556,-6.2704,-6.2728,-6.2825,-6.2644,-6.3079,-6.3092,-6.3104,-6.3244,-6.3271,-6.3295,0,0,0,0,0,-6.2251,-6.2406,-6.2373,-6.2399,-6.2526,-6.264,-6.2656,-6.263,-6.2556,-6.2628,-6.2635,-6.2576,-6.2801,-6.2719,-6.2746,-6.2847,-6.3072,-6.3088,-6.3103,-6.3232,-6.3266,-6.3294,0,0,0,0,0,0,-6.2378,-6.241,-6.2374,-6.2545,-6.2591,-6.2621,-6.2712,-6.2667,-6.2734,-6.2719,-6.2682,-6.2692,-6.2841,-6.2858,-6.2767,-6.3029,-6.2924,-6.2945,-6.3013,-6.3045,-6.307,-6.3063,-6.2652,0,0,0,0,0,-6.2426,-6.2518,-6.254,-6.2689,-6.2714,-6.271,-6.2758,-6.2735,-6.278,-6.2798,-6.2815,-6.286,-6.2939,-6.2993,-6.3068,-6.3245,-6.3251,-6.3327,-6.3353,-6.3374,-6.3393,-6.3485,-6.3518,-6.3162,-6.3161,-6.3161,0,0,-6.2526,-6.2555,-6.2615,-6.2716,-6.2748,-6.2842,-6.2727,-6.2831,-6.2899,-6.2813,-6.2947,-6.2961,-6.3007,-6.3167,-6.3238,-6.3185,-6.3492,-6.3394,-6.3411,-6.3418,-6.3504,-6.3538,-6.3568,-6.3172,-6.317,-6.3168,0,0,-6.2755,-6.2788,-6.2915,-6.295,-6.3001,-6.2996,-6.3027,-6.3064,-6.307,-6.3204,-6.3141,-6.322,-6.336,-6.3395,-6.3431,-6.3672,-6.3618,-6.3697,-6.383,-6.3921,-6.3949,-6.3973,-6.4057,-6.4088,-6.3715,-6.3716,-6.3716,0,-6.2873,-6.3014,-6.2985,-6.3094,-6.3138,-6.3066,-6.3192,-6.3227,-6.3299,-6.3331,-6.3271,-6.3443,-6.347,-6.3635,-6.3694,-6.3726,-6.3757,-6.3692,-6.3948,-6.3972,-6.3994,-6.4074,-6.4106,-6.3725,-6.3724,-6.3723,-6.3722,0,-6.3154,-6.3252,-6.3348,-6.3421,-6.3476,-6.3593,-6.358,-6.3639,-6.361,-6.3611,-6.3746,-6.3775,-6.3853,-6.389,-6.3863,-6.4051,-6.4017,-6.3954,-6.3847,-6.4038,-6.4112,-6.4142,-6.3738,-6.3734,-6.3732,-6.3729,0,0,-6.3467,-6.3521,-6.3557,-6.3588,-6.3638,-6.3712,-6.3824,-6.3902,-6.3952,-6.4004,-6.4095,-6.4214,-6.4155,-6.4197,-6.4172,-6.4252,-6.4437,-6.4178,-6.4178,-6.4223,-6.4643,-6.469,-6.4726,-6.4403,-6.4408,-6.4413,-6.4639,0,-6.3696,-6.3893,-6.3869,-6.4056,-6.4145,-6.4076,-6.4173,-6.4213,-6.4217,-6.429,-6.4293,-6.4377,-6.4294,-6.4318,-6.4394,-6.4399,-6.4521,-6.4382,-6.4485,-6.4489,-6.4474,-6.4765,-6.4815,-6.5027,-6.4668,-6.4673,-6.4676,0,-6.399,-6.4053,-6.425,-6.4284,-6.432,-6.4409,-6.4477,-6.4549,-6.4591,-6.4588,-6.4633,-6.4594,-6.4703,-6.4595,-6.4744,-6.465,-6.469,-6.4699,-6.4706,-6.4714,-6.4593,-6.4779,-6.5094,-6.5125,-6.4722,-6.4718,-6.4715,0,-6.4196,-6.433,-6.4465,-6.4494,-6.4538,-6.4601,-6.4622,-6.4658,-6.4705,-6.4764,-6.4794,-6.4864,-6.4902,-6.4956,-6.4935,-6.4859,-6.5087,-6.4978,-6.5085,-6.5086,-6.5136,-6.5133,-6.5461,-6.5164,-6.5164,-6.5163,-6.5163,0,-6.4454,-6.4577,-6.4558,-6.464,-6.4774,-6.4744,-6.4877,-6.4889,-6.4921,-6.5003,-6.4947,-6.5024,-6.4993,-6.5068,-6.5052,-6.5176,-6.5194,-6.5192,-6.5186,-6.5197,-6.5197,-6.5222,-6.5206,-6.5172,-6.517,-6.5168,-6.5167,0,-6.4707,-6.47,-6.4841,-6.4871,-6.4881,-6.4979,-6.5003,-6.5078,-6.5077,-6.5181,-6.5203,-6.52,-6.5284,-6.5269,-6.5363,-6.5352,-6.5506,-6.5483,-6.5493,-6.5487,-6.5594,-6.5584,-6.5949,-6.5994,-6.567,-6.5673,-6.5676,0,-6.4872,-6.4964,-6.5004,-6.5055,-6.5081,-6.5165,-6.5213,-6.5186,-6.5238,-6.5292,-6.5361,-6.544,-6.5503,-6.564,-6.5645,-6.5715,-6.5692,-6.5815,-6.5702,-6.5709,-6.5692,-6.5686,-6.5694,-6.5837,-6.5841,-6.5844,-6.5846,0,-6.5164,-6.5155,-6.5228,-6.5299,-6.5358,-6.5413,-6.5461,-6.5506,-6.5482,-6.5543,-6.563,-6.5678,-6.5773,-6.5852,-6.5917,-6.5935,-6.5887,-6.5882,-6.591,-6.5921,-6.5922,-6.5921,-6.5552,-6.5873,-6.5871,-6.5869,-6.5867,-6.5866,-6.5376,-6.5454,-6.5494,-6.5576,-6.561,-6.5656,-6.5728,-6.5736,-6.5808,-6.5884,-6.5863,-6.5961,-6.5998,-6.608,-6.6106,-6.618,-6.6134,-6.6175,-6.6185,-6.6196,-6.6208,-6.5912,-6.6192,-6.6191,-6.619,-6.6189,-6.6189,0,-6.5664,-6.5686,-6.5762,-6.5831,-6.5895,-6.5845,-6.5896,-6.5952,-6.6039,-6.6078,-6.6141,-6.6238,-6.6314,-6.6325,-6.6395,-6.6452,-6.6432,-6.6472,-6.6467,-6.6471,-6.6246,-6.6214,-6.6487,-6.6487,-6.6487,-6.6487,-6.6487,-6.6487,-6.5821,-6.595,-6.5946,-6.6089,-6.611,-6.6206,-6.6239,-6.628,-6.6311,-6.6423,-6.6487,-6.6493,-6.652,-6.6592,-6.6659,-6.6659,-6.6687,-6.6736,-6.6728,-6.6517,-6.6487,-6.6459,-6.6428,-6.6743,-6.6743,-6.6947,-6.6949,-6.695]}]]